GFSNE_700_temp_096.txt.gz
Temp
-0 -0 -0 -0 -1 -1 -1 -1 -0 -1 0 -0 -1 -1 -1 -1 -1 -2 -2 -2 -2 -3 -3 -3 -3 -4 -4 -4 -5 -5 -6 -7 -7 -7 -7 -8 -8 -8
-0 -0 -0 -1 -1 -1 -1 -1 -1 0 -0 -1 -1 -1 -1 -1 -1 -2 -2 -2 -3 -3 -3 -4 -4 -4 -5 -5 -6 -6 -7 -7 -7 -8 -8 -8 -9 -9
0 -0 -0 -1 -1 -1 -1 -1 -1 -1 -1 -1 -1 -1 -2 -2 -2 -2 -3 -3 -3 -3 -4 -4 -4 -5 -5 -6 -7 -7 -8 -8 -9 -8 -9 -9 -10 -10
-0 -1 -1 -1 -0 -0 -1 -1 -1 -1 -1 -1 -1 -2 -1 -2 -2 -3 -4 -3 -4 -4 -4 -4 -5 -5 -6 -7 -8 -8 -8 -9 -9 -9 -10 -10 -10 -10
-0 -0 -0 -0 0 0 -0 -1 -1 -1 -1 -1 -2 -2 -1 -2 -2 -3 -3 -4 -4 -5 -5 -5 -5 -5 -6 -8 -9 -9 -9 -10 -10 -10 -11 -11 -11 -11
0 0 0 0 -0 0 -0 -0 -1 -0 -1 -1 -1 -1 -2 -2 -3 -3 -3 -4 -5 -6 -5 -6 -6 -7 -8 -10 -11 -10 -11 -11 -11 -11 -11 -11 -11 -11
0 1 0 -0 -1 -0 -0 -0 -1 -1 -1 -1 -2 -2 -2 -2 -3 -3 -5 -5 -6 -6 -7 -8 -8 -8 -10 -10 -10 -10 -12 -12 -12 -12 -12 -12 -11 -12
1 1 1 -0 -0 -0 -1 -1 -1 -1 -1 -1 -2 -2 -2 -3 -4 -5 -6 -6 -7 -8 -8 -7 -9 -9 -11 -11 -11 -12 -13 -12 -12 -12 -12 -12 -12 -13
0 -0 -1 -0 -1 -1 -1 -1 -1 -1 -2 -2 -3 -3 -3 -4 -5 -6 -6 -7 -7 -8 -8 -8 -9 -10 -12 -12 -12 -13 -13 -13 -13 -13 -12 -12 -13 -13
-0 -0 -0 -1 -1 -2 -2 -2 -2 -2 -3 -4 -4 -4 -5 -5 -5 -6 -8 -8 -8 -9 -10 -10 -12 -12 -12 -12 -13 -13 -13 -14 -14 -13 -13 -13 -14 -14
0 -0 -1 -1 -2 -3 -3 -3 -3 -4 -4 -5 -6 -6 -7 -8 -8 -9 -9 -9 -10 -10 -12 -13 -12 -13 -13 -13 -13 -13 -13 -14 -14 -13 -13 -14 -15 -15
-0 -1 -1 -2 -3 -4 -4 -4 -5 -5 -6 -7 -7 -8 -9 -9 -9 -9 -10 -11 -12 -12 -13 -14 -14 -14 -14 -13 -14 -14 -14 -14 -14 -14 -14 -15 -15 -16
-2 -3 -4 -4 -4 -5 -6 -6 -7 -7 -8 -8 -9 -9 -9 -9 -10 -11 -12 -13 -14 -14 -14 -15 -14 -15 -16 -14 -14 -15 -15 -15 -15 -15 -16 -16 -16 -17
-5 -5 -5 -6 -7 -7 -7 -8 -8 -8 -9 -9 -9 -10 -11 -12 -13 -13 -14 -14 -15 -15 -15 -16 -16 -16 -16 -15 -15 -15 -16 -16 -18 -17 -17 -17 -17 -18
-6 -6 -7 -7 -8 -8 -8 -9 -9 -10 -11 -11 -12 -13 -14 -14 -15 -15 -16 -16 -16 -16 -16 -17 -17 -17 -17 -17 -16 -15 -16 -17 -18 -18 -18 -18 -18 -18
-7 -8 -8 -8 -9 -10 -10 -10 -11 -12 -13 -14 -15 -16 -16 -17 -17 -17 -17 -18 -18 -18 -18 -18 -18 -18 -18 -18 -18 -17 -18 -18 -18 -18 -18 -18 -18 -18
-9 -9 -9 -9 -10 -11 -12 -13 -13 -14 -15 -16 -17 -18 -19 -19 -20 -20 -20 -20 -20 -20 -20 -20 -20 -20 -20 -20 -20 -19 -19 -19 -19 -19 -19 -19 -19 -19
-9 -10 -10 -11 -12 -13 -15 -16 -17 -18 -18 -19 -20 -21 -22 -22 -22 -22 -22 -22 -22 -22 -22 -22 -22 -21 -21 -21 -21 -21 -20 -20 -20 -19 -19 -18 -19 -18
-11 -12 -13 -14 -15 -16 -17 -18 -19 -20 -21 -22 -23 -24 -24 -24 -24 -24 -24 -24 -24 -24 -24 -24 -23 -24 -23 -22 -22 -23 -23 -20 -20 -19 -19 -19 -19 -18
-14 -14 -15 -16 -17 -18 -19 -20 -21 -22 -23 -24 -25 -25 -26 -26 -26 -26 -26 -26 -25 -25 -25 -25 -25 -25 -25 -23 -22 -22 -22 -21 -20 -20 -19 -19 -19 -19
-15 -16 -17 -18 -19 -20 -21 -22 -23 -24 -24 -25 -26 -26 -26 -26 -26 -27 -26 -26 -26 -26 -26 -26 -25 -25 -25 -24 -23 -22 -23 -22 -21 -20 -19 -19 -19 -19
-18 -18 -19 -20 -21 -21 -22 -23 -24 -24 -25 -25 -26 -26 -26 -27 -27 -27 -27 -27 -27 -27 -26 -26 -26 -25 -25 -24 -24 -23 -22 -22 -21 -20 -19 -19 -19 -19
-19 -20 -21 -21 -22 -23 -23 -24 -25 -25 -25 -26 -26 -26 -27 -27 -27 -27 -27 -27 -27 -27 -27 -26 -26 -25 -25 -24 -23 -23 -22 -21 -20 -20 -19 -19 -19 -19

GFSNE_700_temp_099.txt.gz
Temp
0 0 1 1 0 0 -0 -0 -1 -1 1 0 0 0 -0 -1 -1 -1 -2 -1 -2 -1 -2 -2 -2 -3 -3 -3 -3 -3 -3 -4 -5 -5 -6 -6 -6 -7
0 1 1 0 0 -0 -1 -1 -1 -1 -1 -1 -0 -0 -0 -1 -1 -1 -2 -1 -2 -2 -2 -1 -2 -3 -3 -3 -4 -4 -4 -4 -5 -6 -7 -7 -7 -8
1 1 1 0 0 -0 -0 -1 -1 -0 -0 0 -1 -1 -1 -1 -1 -1 -1 -2 -2 -1 -2 -2 -3 -3 -4 -4 -4 -5 -5 -6 -7 -7 -8 -8 -8 -9
1 1 1 0 -0 0 -0 -0 -1 -0 -0 0 -0 -1 -1 -1 -1 -1 -1 -1 -2 -2 -3 -3 -3 -4 -4 -4 -4 -5 -6 -6 -8 -8 -9 -9 -9 -10
1 1 0 -0 0 -0 -0 0 -0 -1 -0 -0 -0 -1 -1 -1 -1 -2 -2 -2 -2 -2 -3 -3 -3 -3 -4 -4 -5 -6 -5 -6 -7 -10 -10 -10 -11 -11
1 -0 -0 -0 0 1 -0 -0 -0 -0 -0 -0 -0 -1 -1 -1 -1 -2 -2 -3 -3 -3 -3 -3 -3 -4 -4 -6 -6 -6 -6 -7 -9 -10 -10 -11 -12 -12
0 1 1 1 0 0 -0 -0 -1 -1 -0 -0 -1 -1 -1 -1 -2 -2 -3 -3 -4 -4 -4 -4 -5 -5 -6 -6 -7 -7 -7 -8 -9 -10 -10 -11 -11 -12
1 1 0 -0 -0 0 -1 -1 -0 -1 -0 -1 -1 -2 -1 -2 -2 -3 -3 -4 -5 -6 -6 -6 -6 -6 -7 -8 -8 -8 -9 -9 -10 -10 -11 -12 -12 -12
0 -1 1 -1 -1 -0 -1 -1 -1 -2 -2 -2 -3 -3 -3 -3 -4 -4 -5 -5 -6 -7 -7 -7 -8 -8 -8 -9 -9 -9 -10 -11 -12 -12 -12 -12 -13 -13
0 -0 -1 -1 -1 -1 -0 -0 -1 -1 -3 -3 -4 -3 -4 -5 -6 -7 -7 -8 -8 -8 -9 -9 -9 -9 -9 -9 -10 -10 -11 -12 -12 -13 -13 -13 -13 -13
-0 -0 -1 -1 -1 -1 -2 -2 -3 -4 -4 -5 -5 -5 -6 -7 -8 -8 -8 -8 -9 -9 -10 -10 -10 -10 -10 -10 -11 -12 -13 -13 -13 -14 -13 -13 -14 -14
-1 -1 -1 -2 -2 -3 -3 -5 -5 -5 -6 -6 -7 -7 -7 -8 -8 -9 -9 -10 -10 -10 -11 -12 -12 -13 -14 -13 -13 -14 -14 -15 -14 -14 -14 -14 -14 -15
-1 -2 -2 -3 -4 -5 -5 -6 -6 -7 -7 -7 -8 -8 -8 -9 -9 -10 -11 -11 -12 -13 -14 -15 -15 -15 -16 -16 -15 -16 -17 -16 -16 -15 -15 -15 -15 -16
-4 -4 -5 -5 -5 -6 -6 -6 -7 -7 -8 -8 -9 -10 -10 -11 -12 -13 -13 -14 -15 -16 -16 -17 -17 -17 -17 -17 -16 -16 -16 -16 -17 -17 -17 -17 -17 -17
-5 -6 -6 -6 -6 -6 -7 -7 -8 -8 -9 -10 -11 -12 -13 -13 -14 -15 -16 -17 -17 -18 -18 -18 -18 -19 -19 -19 -18 -17 -17 -17 -18 -17 -17 -18 -17 -17
-6 -6 -6 -7 -7 -8 -8 -9 -10 -10 -11 -12 -13 -14 -15 -17 -17 -19 -19 -20 -20 -20 -21 -21 -21 -21 -21 -20 -20 -19 -19 -19 -18 -19 -19 -19 -18 -18
-7 -7 -8 -8 -9 -10 -10 -11 -12 -13 -14 -15 -16 -17 -18 -19 -20 -21 -22 -23 -23 -23 -23 -23 -23 -24 -24 -23 -21 -21 -20 -20 -20 -19 -20 -19 -18 -18
-8 -9 -9 -10 -11 -12 -13 -14 -15 -16 -17 -18 -19 -20 -21 -22 -23 -23 -24 -25 -25 -25 -25 -25 -25 -25 -24 -23 -24 -23 -23 -22 -22 -22 -21 -20 -19 -18
-10 -10 -11 -12 -13 -15 -15 -16 -17 -18 -19 -20 -20 -21 -22 -23 -24 -25 -25 -26 -26 -26 -26 -26 -26 -27 -27 -26 -25 -25 -25 -23 -22 -22 -21 -20 -18 -18
-12 -13 -14 -15 -16 -17 -17 -18 -19 -20 -20 -21 -22 -23 -23 -24 -24 -25 -25 -26 -26 -26 -26 -27 -27 -28 -28 -26 -24 -24 -25 -24 -24 -22 -21 -21 -19 -18
-14 -15 -16 -17 -17 -18 -19 -20 -21 -21 -22 -22 -23 -24 -24 -25 -25 -25 -26 -26 -27 -27 -27 -27 -27 -27 -26 -26 -25 -24 -24 -24 -23 -22 -21 -20 -19 -19
-16 -17 -17 -18 -19 -20 -20 -21 -22 -22 -23 -24 -24 -24 -25 -25 -25 -26 -26 -26 -27 -27 -27 -27 -27 -26 -26 -26 -25 -24 -24 -23 -23 -22 -20 -20 -19 -19
-18 -18 -19 -20 -20 -21 -22 -22 -23 -24 -24 -24 -25 -25 -25 -26 -26 -26 -27 -27 -27 -27 -27 -26 -26 -26 -26 -25 -24 -24 -23 -23 -22 -22 -21 -20 -19 -19

GFSNE_700_temp_102.txt.gz
Temp
-2 -1 -1 -0 -0 0 1 1 0 0 0 0 -0 -0 0 -1 -0 -1 -1 -1 -1 -1 -1 -1 -1 -2 -2 -3 -3 -4 -4 -4 -3 -4 -4 -4 -5 -6
-1 0 1 1 1 1 0 -0 -0 -0 -0 -1 -0 -1 -1 -1 -1 -1 -1 -1 -1 -1 -1 -1 -2 -2 -2 -2 -3 -3 -4 -4 -5 -5 -5 -6 -6 -7
1 1 1 1 0 0 -0 -0 -0 -0 0 0 -0 -0 -0 -1 -1 -1 -1 -2 -1 -2 -1 -1 -2 -2 -2 -2 -3 -4 -4 -5 -5 -5 -5 -6 -7 -9
1 1 1 0 0 0 0 -0 -0 -0 -1 0 -1 -1 -1 -0 -1 -2 -2 -1 -2 -2 -2 -2 -2 -2 -2 -2 -3 -4 -4 -4 -5 -5 -5 -5 -7 -7
1 1 0 -0 0 -0 -1 -1 -1 -1 -0 -0 -1 -0 -1 -2 -1 -1 -1 -2 -2 -2 -2 -2 -2 -2 -3 -4 -4 -3 -4 -4 -5 -5 -6 -6 -6 -7
0 0 1 1 0 -0 1 -0 -0 -1 -0 -1 -1 -0 -1 -1 -2 -2 -2 -2 -3 -2 -3 -3 -3 -4 -5 -5 -5 -4 -4 -5 -6 -6 -6 -7 -7 -8
0 0 0 0 -0 0 -0 0 0 -1 -0 -1 -1 -2 -3 -3 -2 -3 -3 -3 -3 -4 -4 -4 -4 -5 -5 -6 -6 -6 -6 -7 -8 -8 -8 -8 -9 -9
0 0 -0 0 0 -1 -0 -1 -1 -1 -1 -1 -2 -2 -2 -3 -2 -4 -5 -5 -5 -4 -5 -5 -6 -6 -6 -7 -7 -7 -8 -8 -9 -9 -9 -9 -9 -9
-0 1 0 0 -0 -1 -1 -1 -1 -1 -1 -2 -2 -2 -3 -4 -4 -4 -5 -5 -5 -6 -6 -6 -7 -7 -8 -8 -8 -9 -9 -9 -9 -10 -10 -10 -10 -11
0 0 -1 0 -1 -1 -1 -1 -2 -2 -3 -2 -2 -3 -4 -5 -5 -6 -6 -6 -7 -8 -8 -8 -8 -8 -9 -9 -9 -9 -10 -10 -10 -11 -11 -12 -12 -12
0 0 -0 -1 -1 -1 -1 -2 -2 -3 -3 -4 -5 -6 -6 -7 -7 -7 -8 -8 -8 -9 -10 -10 -10 -10 -10 -10 -11 -11 -12 -12 -13 -13 -13 -13 -13 -14
-1 -2 -1 -2 -2 -3 -3 -3 -4 -4 -5 -6 -6 -7 -7 -8 -8 -8 -9 -10 -10 -10 -12 -12 -13 -14 -13 -12 -13 -14 -14 -15 -15 -15 -15 -15 -15 -15
-1 -1 -2 -2 -3 -4 -4 -5 -5 -6 -6 -7 -7 -8 -8 -9 -9 -10 -11 -12 -12 -14 -15 -16 -15 -16 -18 -17 -16 -16 -17 -17 -17 -17 -17 -17 -17 -17
-2 -3 -3 -4 -5 -5 -5 -5 -6 -6 -7 -8 -8 -9 -10 -11 -11 -12 -13 -14 -15 -16 -17 -18 -19 -20 -20 -20 -20 -18 -18 -18 -18 -18 -18 -17 -17 -17
-4 -4 -5 -6 -6 -5 -6 -6 -7 -7 -8 -9 -10 -11 -12 -13 -14 -15 -15 -17 -17 -18 -20 -21 -22 -23 -24 -24 -24 -23 -21 -20 -19 -19 -19 -19 -18 -18
-5 -5 -5 -6 -7 -7 -7 -8 -9 -10 -10 -11 -13 -14 -15 -16 -17 -17 -18 -19 -19 -20 -21 -22 -23 -24 -25 -25 -25 -25 -24 -23 -22 -21 -21 -20 -20 -19
-6 -6 -6 -7 -8 -9 -10 -10 -11 -12 -13 -15 -16 -16 -17 -18 -19 -19 -20 -21 -22 -22 -23 -23 -24 -25 -25 -26 -26 -26 -25 -25 -25 -24 -22 -21 -20 -20
-7 -7 -8 -9 -10 -11 -12 -13 -14 -15 -16 -17 -18 -19 -19 -20 -20 -21 -22 -22 -23 -23 -24 -24 -25 -25 -25 -25 -27 -27 -27 -26 -26 -25 -24 -23 -21 -20
-8 -9 -10 -11 -12 -13 -14 -16 -17 -17 -18 -19 -19 -20 -20 -21 -22 -22 -23 -23 -24 -24 -25 -25 -25 -26 -26 -25 -25 -27 -27 -26 -26 -25 -24 -23 -23 -21
-10 -11 -12 -13 -15 -16 -17 -17 -18 -19 -19 -20 -21 -21 -22 -22 -23 -23 -24 -24 -24 -25 -25 -26 -26 -26 -26 -26 -25 -25 -26 -26 -26 -25 -24 -24 -22 -21
-12 -14 -15 -16 -17 -17 -18 -19 -19 -20 -21 -22 -22 -23 -23 -24 -24 -25 -25 -25 -25 -26 -26 -26 -26 -26 -26 -26 -25 -25 -25 -26 -25 -24 -23 -22 -22 -21
-14 -15 -16 -17 -18 -19 -19 -20 -21 -21 -22 -23 -23 -24 -24 -25 -25 -25 -26 -26 -26 -26 -26 -26 -26 -26 -26 -26 -25 -25 -24 -24 -24 -23 -23 -22 -20 -19
-16 -17 -18 -19 -19 -20 -20 -21 -22 -23 -23 -24 -25 -25 -25 -25 -26 -26 -26 -26 -26 -26 -26 -26 -26 -26 -26 -25 -25 -24 -24 -24 -23 -22 -22 -20 -20 -19

GFSNE_700_temp_105.txt.gz
Temp
-1 -1 -1 -1 -1 -1 -1 -1 -1 0 1 1 1 0 -1 -1 -1 -1 -1 -1 -1 -1 -1 -1 -1 -1 -2 -2 -2 -2 -2 -3 -3 -3 -3 -4 -4 -4
-1 -1 -1 -1 -1 -1 -1 -0 -0 -0 -0 0 0 -0 -1 -0 -1 -1 -1 -1 -1 -1 -1 -1 -2 -1 -2 -2 -2 -2 -2 -2 -3 -3 -3 -4 -5 -5
-1 -1 -1 -1 -1 -0 0 -0 0 0 -0 -0 -1 -1 -1 -1 -1 -1 -1 -1 -1 -1 -1 -1 -1 -1 -1 -2 -2 -2 -2 -2 -2 -3 -3 -3 -4 -5
-1 -1 -0 -0 1 0 0 1 0 -0 -0 -1 -0 -0 -0 -1 -1 -1 -1 -1 -1 -1 -1 -1 -2 -2 -2 -2 -3 -2 -2 -3 -3 -4 -3 -4 -4 -4
-1 -1 -1 1 1 1 0 0 0 -0 -0 -1 -0 -1 -1 -1 -1 -1 -3 -2 -1 -1 -1 -1 -1 -2 -2 -3 -3 -3 -3 -3 -4 -5 -5 -4 -5 -5
-1 0 1 0 0 0 0 -0 -1 -1 -0 -1 -1 -1 -1 -2 -2 -2 -2 -1 -1 -2 -2 -2 -3 -4 -5 -5 -5 -5 -5 -4 -4 -5 -6 -6 -6 -7
-0 -0 -1 -1 -1 -0 -0 0 0 -1 -1 -1 -1 -2 -1 -2 -2 -2 -2 -1 -2 -2 -3 -4 -4 -5 -6 -6 -5 -6 -6 -7 -7 -7 -7 -8 -8 -8
-1 -0 -0 0 -0 -0 -1 -0 -1 -1 -1 -1 -2 -2 -2 -2 -2 -2 -2 -3 -3 -4 -4 -5 -6 -5 -6 -6 -6 -6 -7 -7 -8 -8 -8 -9 -9 -9
-0 -1 -0 -0 -1 -0 -1 -1 -1 -1 -2 -1 -2 -2 -2 -3 -3 -3 -4 -4 -5 -5 -5 -5 -6 -7 -7 -7 -8 -8 -9 -9 -9 -9 -10 -10 -10 -10
-0 0 -0 -0 -0 -1 -1 -2 -2 -2 -2 -2 -3 -3 -4 -4 -4 -5 -5 -5 -6 -7 -6 -7 -7 -7 -8 -9 -10 -11 -11 -11 -11 -11 -11 -11 -11 -12
-0 0 -0 -0 -2 -1 -1 -2 -2 -2 -2 -3 -4 -5 -5 -6 -6 -7 -7 -8 -8 -9 -9 -10 -10 -9 -10 -11 -12 -12 -13 -13 -13 -13 -14 -14 -14 -14
0 -1 -2 -2 -3 -3 -3 -3 -3 -4 -4 -5 -6 -6 -7 -7 -8 -8 -9 -9 -10 -10 -11 -12 -12 -13 -11 -11 -13 -14 -15 -16 -16 -16 -16 -16 -16 -16
-1 -2 -2 -3 -3 -3 -4 -4 -5 -5 -5 -6 -7 -7 -8 -9 -10 -11 -12 -12 -13 -14 -15 -15 -15 -16 -17 -15 -15 -16 -17 -17 -18 -19 -19 -19 -18 -18
-3 -3 -3 -4 -4 -4 -4 -5 -5 -6 -6 -7 -8 -9 -10 -11 -12 -13 -14 -15 -16 -17 -17 -18 -18 -19 -19 -19 -19 -18 -19 -21 -22 -21 -21 -21 -19 -18
-4 -4 -4 -5 -5 -5 -5 -6 -6 -7 -8 -9 -10 -11 -13 -14 -15 -15 -16 -17 -18 -19 -19 -20 -20 -21 -22 -22 -23 -22 -22 -22 -25 -25 -24 -23 -22 -20
-6 -5 -5 -5 -6 -7 -7 -8 -9 -10 -11 -11 -12 -14 -15 -16 -17 -17 -18 -19 -19 -20 -21 -22 -22 -23 -23 -24 -24 -24 -25 -25 -25 -25 -26 -25 -24 -22
-6 -6 -7 -7 -8 -9 -9 -10 -11 -12 -13 -14 -15 -16 -17 -17 -18 -19 -20 -20 -21 -21 -21 -22 -23 -23 -24 -25 -25 -25 -26 -26 -26 -26 -26 -25 -24 -23
-7 -7 -8 -9 -9 -10 -11 -12 -13 -14 -15 -16 -17 -18 -18 -19 -20 -21 -21 -22 -22 -22 -23 -23 -23 -23 -23 -24 -26 -26 -26 -26 -26 -26 -27 -26 -24 -24
-8 -9 -9 -10 -11 -12 -13 -14 -15 -16 -17 -18 -18 -19 -20 -21 -21 -22 -23 -23 -23 -24 -24 -24 -24 -24 -24 -23 -24 -26 -26 -25 -25 -25 -26 -25 -25 -24
-9 -10 -11 -12 -12 -14 -15 -16 -17 -18 -18 -19 -20 -21 -21 -22 -23 -23 -24 -24 -24 -24 -25 -25 -25 -25 -25 -25 -24 -24 -26 -25 -25 -24 -24 -25 -24 -23
-11 -12 -13 -14 -15 -16 -17 -18 -18 -19 -20 -20 -21 -22 -23 -23 -24 -24 -24 -25 -25 -25 -25 -25 -25 -25 -25 -25 -25 -24 -25 -25 -25 -24 -24 -23 -23 -23
-13 -13 -14 -15 -16 -17 -18 -19 -20 -20 -21 -22 -23 -23 -24 -24 -25 -25 -25 -25 -25 -25 -25 -25 -25 -25 -25 -25 -24 -24 -24 -24 -24 -23 -23 -23 -22 -21
-14 -15 -16 -16 -18 -19 -19 -20 -21 -21 -22 -23 -24 -24 -25 -25 -26 -26 -25 -25 -25 -25 -25 -25 -25 -25 -25 -25 -24 -23 -23 -23 -22 -22 -22 -21 -20 -20

GFSNE_700_temp_111.txt.gz
Temp
-0 -0 -0 -1 -1 -1 -1 -1 -2 -1 -1 -1 -0 -1 -1 -1 -1 -1 -1 -1 -1 -1 -1 -1 -1 -1 -1 -1 -2 -1 -1 -1 -1 -1 -1 -2 -2 -3
-0 -1 -0 -1 -1 -1 -1 -1 -1 -1 -1 -1 -0 -0 -1 -1 -1 -1 -1 -1 -1 -1 -1 -1 -1 -1 -2 -2 -2 -1 -1 -2 -1 -2 -2 -2 -2 -3
-0 -1 -1 -1 -1 -1 -1 -1 -1 -1 -1 -1 -1 -1 -0 0 -0 -0 -1 -1 -1 -1 -1 -1 -1 -1 -2 -2 -2 -2 -1 -2 -2 -2 -2 -2 -3 -3
-0 -1 -1 -1 -1 -1 -1 -1 -1 -1 -2 -1 -0 -1 -1 -1 -1 -1 -1 -0 -1 -1 -2 -1 -1 -1 -2 -2 -2 -2 -1 -1 -1 -1 -2 -3 -3 -3
-0 -0 -1 -1 -1 -1 -1 -1 -2 -2 -1 -1 -1 -0 -1 -1 -1 -1 -1 -2 -1 -2 -2 -2 -2 -2 -3 -3 -3 -2 -2 -2 -2 -2 -2 -2 -3 -3
-0 -1 -1 -1 -1 -1 -1 -1 -1 -1 -1 -1 -1 -0 -1 -1 -1 -2 -1 -2 -2 -2 -3 -3 -3 -3 -3 -3 -3 -4 -3 -3 -4 -4 -4 -4 -3 -3
-1 -1 -1 -1 -1 -1 -1 -1 -1 -1 -1 -1 -1 -2 -1 -1 -1 -1 -1 -2 -2 -2 -2 -3 -3 -3 -4 -4 -5 -5 -5 -5 -5 -5 -5 -6 -6 -6
0 -1 -1 -2 -1 -0 -1 -1 -2 -1 -1 -0 -1 -1 -1 -2 -2 -2 -1 -2 -2 -3 -2 -3 -4 -4 -4 -4 -5 -5 -6 -6 -7 -7 -8 -8 -8 -8
-1 -1 -1 -1 -1 -0 -0 -0 -1 -1 -1 -1 -2 -2 -3 -3 -2 -3 -3 -3 -3 -2 -2 -3 -3 -4 -4 -6 -7 -8 -8 -9 -9 -9 -9 -10 -10 -10
-1 -1 -1 -1 -1 -0 -1 -1 -1 -2 -1 -2 -3 -2 -3 -3 -3 -3 -3 -4 -4 -4 -4 -4 -5 -5 -6 -8 -9 -10 -11 -12 -12 -12 -13 -13 -13 -13
-1 -2 -2 -1 -1 -0 -1 -1 -1 -2 -3 -3 -3 -4 -3 -4 -4 -4 -5 -5 -6 -7 -7 -7 -7 -7 -9 -10 -11 -13 -13 -14 -15 -15 -16 -16 -16 -16
-1 -1 -1 -1 -1 -1 -1 -2 -3 -3 -4 -5 -5 -4 -4 -5 -5 -6 -6 -7 -7 -8 -10 -10 -11 -11 -9 -10 -12 -15 -16 -17 -17 -18 -19 -19 -19 -19
-1 -1 -1 -1 -1 -2 -2 -3 -4 -5 -6 -6 -7 -6 -5 -6 -7 -8 -9 -10 -10 -11 -12 -12 -12 -14 -15 -15 -15 -18 -19 -20 -20 -20 -21 -21 -21 -21
-1 -2 -3 -3 -3 -4 -4 -5 -6 -6 -7 -7 -6 -7 -7 -8 -9 -10 -11 -12 -13 -13 -14 -15 -16 -17 -18 -19 -19 -20 -21 -21 -21 -21 -21 -22 -22 -22
-3 -5 -5 -5 -5 -5 -5 -6 -7 -7 -7 -7 -8 -8 -9 -10 -11 -12 -12 -13 -15 -16 -17 -18 -19 -20 -21 -22 -21 -21 -22 -21 -22 -22 -22 -22 -23 -23
-5 -5 -5 -5 -7 -7 -8 -7 -7 -7 -8 -8 -9 -10 -11 -12 -13 -13 -14 -15 -16 -18 -19 -20 -22 -22 -22 -22 -23 -23 -23 -23 -23 -23 -23 -23 -24 -24
-5 -5 -6 -7 -8 -7 -7 -7 -8 -8 -9 -10 -11 -12 -13 -14 -14 -15 -16 -17 -18 -19 -20 -22 -22 -22 -23 -23 -23 -24 -23 -23 -23 -23 -24 -24 -24 -24
-6 -8 -8 -8 -8 -8 -9 -8 -9 -10 -11 -12 -13 -14 -14 -15 -16 -17 -18 -19 -20 -21 -22 -22 -22 -21 -21 -22 -23 -24 -23 -23 -23 -23 -24 -24 -24 -24
-8 -7 -8 -9 -9 -9 -10 -10 -11 -11 -12 -14 -14 -15 -16 -17 -18 -19 -20 -21 -22 -22 -23 -23 -22 -22 -22 -21 -22 -24 -23 -23 -22 -22 -23 -24 -24 -24
-8 -9 -9 -10 -10 -10 -11 -11 -12 -13 -14 -15 -16 -17 -18 -19 -20 -21 -22 -22 -22 -22 -22 -23 -23 -23 -22 -22 -22 -22 -23 -22 -22 -22 -23 -23 -23 -23
-10 -10 -11 -11 -12 -12 -12 -13 -14 -15 -16 -17 -18 -19 -20 -21 -22 -22 -22 -22 -22 -22 -22 -22 -22 -23 -22 -22 -21 -21 -22 -22 -21 -22 -22 -22 -22 -22
-11 -11 -12 -12 -12 -13 -14 -15 -15 -16 -17 -18 -19 -20 -21 -22 -22 -22 -22 -22 -22 -22 -22 -22 -22 -22 -22 -21 -21 -21 -21 -21 -21 -21 -21 -21 -21 -21
-12 -12 -12 -13 -14 -15 -15 -16 -17 -18 -18 -19 -21 -22 -22 -22 -22 -22 -22 -22 -22 -22 -22 -22 -22 -22 -21 -21 -21 -20 -20 -20 -20 -20 -20 -20 -20 -20

GFSNE_700_temp_114.txt.gz
Temp
-1 -2 -1 -1 -1 -1 -1 -1 -1 -1 -1 -1 -1 -2 -1 -1 -1 -1 -1 -1 -1 -2 -1 -1 -1 -1 -1 -1 -1 -1 -1 -2 -2 -2 -2 -2 -2 -1
-1 -1 -0 -0 -0 -1 -1 -1 -1 -1 -1 -1 -1 -1 -2 -1 -1 -1 -1 -1 -1 -1 -1 -1 -1 -1 -1 -2 -2 -1 -2 -2 -2 -2 -2 -2 -2 -2
-0 -1 -1 -1 -0 -1 -1 -1 -1 -1 -1 -1 -1 -1 -1 -1 -1 -1 -1 -1 -1 -1 -1 -1 -1 -1 -1 -2 -2 -2 -2 -2 -1 -1 -2 -2 -3 -2
-0 -0 -0 -1 -1 -1 -1 -1 -1 -1 -1 -1 -1 -1 -2 -1 -1 -1 -1 -0 -1 -1 -1 -1 -2 -2 -2 -3 -2 -3 -2 -2 -2 -2 -2 -2 -2 -3
-0 -0 -1 -0 -0 -1 -1 -1 -1 -1 -1 -1 -1 -1 -1 -1 -1 -1 -1 -1 -2 -1 -1 -1 -2 -2 -2 -2 -2 -2 -2 -3 -3 -3 -3 -3 -3 -3
-0 -0 -0 -1 -1 -1 -1 -1 -1 -2 -2 -2 -1 -1 -1 -1 -1 -2 -1 -2 -2 -2 -2 -2 -3 -3 -3 -3 -3 -3 -3 -3 -3 -3 -3 -4 -4 -4
-0 0 -0 -1 -0 -1 -1 -2 -2 -2 -2 -1 -1 -2 -1 -1 -2 -2 -2 -2 -2 -3 -3 -3 -3 -3 -3 -4 -3 -4 -5 -5 -5 -5 -5 -5 -5 -5
-0 -1 -1 -1 -1 -1 -2 -2 -2 -1 -1 -1 -1 -1 -1 -1 -2 -2 -2 -3 -3 -3 -3 -3 -3 -3 -4 -4 -4 -4 -5 -5 -5 -5 -6 -6 -7 -7
-1 -1 -0 -0 -1 -1 -1 -2 -2 -1 -1 -1 -1 -1 -2 -2 -2 -2 -3 -3 -3 -3 -3 -3 -4 -4 -5 -6 -7 -8 -8 -8 -8 -8 -9 -9 -10 -10
-0 -1 -1 -1 -1 -1 -1 -1 -1 -1 -0 -2 -2 -2 -2 -3 -4 -4 -4 -4 -4 -4 -4 -4 -5 -5 -6 -7 -8 -9 -10 -10 -11 -11 -12 -13 -13 -14
-1 -1 -1 -1 -2 -1 -1 -1 -1 -2 -2 -2 -2 -4 -4 -4 -5 -5 -5 -5 -6 -6 -5 -6 -6 -5 -6 -8 -9 -10 -11 -12 -13 -14 -16 -17 -17 -18
-1 -1 -1 -1 -1 -1 -2 -2 -2 -2 -3 -4 -4 -5 -6 -5 -6 -6 -6 -7 -7 -7 -7 -7 -8 -8 -6 -8 -10 -13 -13 -15 -16 -18 -19 -19 -20 -20
-2 -2 -2 -2 -1 -2 -2 -2 -3 -5 -5 -5 -6 -6 -8 -7 -7 -7 -8 -8 -8 -9 -9 -9 -9 -10 -11 -11 -12 -15 -17 -18 -19 -19 -20 -20 -21 -22
-1 -1 -1 -1 -1 -2 -4 -6 -5 -5 -6 -7 -8 -8 -7 -7 -9 -9 -10 -10 -10 -10 -10 -11 -12 -13 -14 -15 -16 -18 -19 -20 -20 -20 -21 -21 -22 -23
-1 -2 -2 -4 -6 -6 -5 -5 -6 -8 -10 -8 -8 -9 -9 -9 -10 -11 -11 -12 -13 -13 -13 -14 -15 -16 -18 -19 -19 -20 -22 -19 -21 -21 -21 -22 -23 -23
-3 -5 -6 -6 -5 -5 -6 -8 -9 -8 -8 -9 -9 -9 -9 -11 -12 -12 -13 -13 -14 -15 -16 -16 -17 -19 -19 -20 -21 -22 -21 -21 -21 -21 -22 -22 -23 -24
-6 -6 -5 -6 -6 -8 -9 -8 -8 -9 -9 -10 -10 -11 -12 -13 -13 -13 -14 -15 -15 -16 -17 -19 -19 -20 -20 -20 -21 -21 -20 -20 -21 -21 -22 -21 -22 -23
-6 -7 -7 -8 -9 -9 -9 -9 -9 -10 -10 -11 -12 -13 -13 -14 -15 -15 -16 -16 -17 -18 -19 -19 -19 -19 -20 -20 -21 -19 -19 -20 -21 -21 -21 -21 -22 -23
-7 -9 -10 -8 -9 -9 -9 -10 -10 -11 -12 -13 -13 -14 -15 -15 -16 -16 -17 -18 -19 -20 -20 -20 -20 -20 -19 -19 -20 -20 -19 -20 -21 -21 -21 -21 -22 -22
-9 -8 -8 -9 -9 -10 -10 -11 -12 -12 -13 -14 -15 -15 -16 -17 -17 -18 -19 -19 -20 -20 -20 -20 -20 -20 -20 -20 -20 -20 -20 -19 -20 -20 -20 -21 -21 -21
-9 -9 -9 -10 -10 -11 -12 -13 -13 -14 -15 -15 -16 -16 -17 -18 -18 -19 -20 -20 -20 -20 -21 -20 -20 -20 -20 -20 -20 -20 -20 -20 -20 -19 -19 -19 -19 -20
-10 -11 -11 -11 -12 -13 -13 -14 -15 -15 -16 -16 -17 -17 -18 -19 -20 -21 -21 -21 -21 -21 -21 -21 -20 -20 -20 -20 -20 -20 -20 -20 -20 -19 -20 -20 -20 -19
-11 -12 -12 -13 -13 -14 -14 -15 -15 -16 -17 -17 -18 -18 -20 -20 -21 -21 -21 -21 -21 -21 -21 -21 -20 -20 -20 -20 -20 -20 -20 -19 -19 -19 -20 -20 -20 -20

GFSNE_700_temp_117.txt.gz
Temp
1 1 -0 -0 -1 -1 -1 -1 -2 -2 -2 -1 -2 -1 -1 -2 -1 -1 -2 -1 -1 -1 -1 -1 -2 -1 -1 -1 -1 -1 -1 -1 -1 -1 -1 -1 -2 -1
1 1 -1 -1 -2 -2 -2 -1 -1 -1 -1 -1 -1 -1 -2 -1 -1 -1 -2 -1 -1 -1 -1 -1 -1 -1 -1 -1 -1 -1 -1 -1 -1 -2 -2 -2 -2 -2
-1 -1 -1 -2 -1 -2 -1 -1 -1 -1 -1 -1 -1 -2 -1 -1 -1 -1 -1 -1 -1 -1 -1 -1 -0 -1 -1 -1 -1 -1 -2 -2 -2 -2 -3 -2 -2 -2
0 0 -0 -1 -1 -1 -1 -1 -1 -1 -1 -1 -1 -1 -1 -1 -1 -1 -1 -1 -1 -1 -1 -2 -2 -1 -2 -1 -2 -2 -2 -2 -2 -3 -3 -2 -3 -2
0 -0 0 -0 -1 -0 -1 -1 -1 -1 -1 -1 -1 -2 -1 -1 -1 -1 -1 -1 -1 -2 -2 -1 -2 -1 -2 -3 -3 -2 -2 -1 -2 -2 -2 -2 -2 -2
0 0 0 -0 -0 -1 -1 -1 -1 -1 -1 -1 -1 -2 -2 -1 -1 -1 -1 -2 -2 -2 -2 -2 -2 -2 -3 -3 -2 -2 -2 -2 -2 -2 -2 -2 -2 -2
-0 0 0 -0 -1 -1 -1 -1 -1 -1 -1 -1 -1 -1 -2 -1 -2 -1 -2 -2 -2 -2 -2 -2 -3 -3 -3 -4 -4 -4 -4 -4 -4 -4 -4 -4 -4 -4
1 0 -0 -0 -1 -1 -1 -1 -1 -1 -1 -2 -1 -2 -1 -2 -2 -2 -2 -3 -2 -3 -3 -4 -5 -5 -5 -5 -5 -5 -5 -5 -5 -5 -6 -6 -6 -6
-0 -0 -0 -0 -1 -1 -1 -1 -2 -2 -2 -2 -2 -2 -1 -2 -2 -2 -2 -3 -3 -4 -5 -5 -5 -5 -5 -5 -6 -7 -7 -7 -7 -7 -8 -8 -8 -9
-0 -0 -0 -1 -1 -1 -2 -2 -1 -1 -2 -1 -1 -2 -2 -2 -2 -3 -4 -5 -5 -5 -5 -5 -5 -5 -6 -7 -8 -9 -9 -8 -9 -9 -10 -11 -13 -14
-0 -1 -1 -1 -1 -1 -1 -1 -1 -1 -1 -1 -2 -2 -2 -3 -4 -5 -6 -6 -8 -7 -6 -6 -7 -6 -7 -8 -9 -9 -9 -11 -13 -14 -15 -16 -17 -17
-1 -1 -2 -2 -2 -2 -2 -1 -1 -2 -2 -2 -2 -4 -5 -5 -5 -6 -7 -8 -6 -7 -6 -7 -8 -8 -6 -7 -10 -11 -12 -13 -15 -16 -17 -19 -19 -19
-1 -2 -2 -2 -2 -1 -2 -2 -2 -2 -3 -5 -6 -5 -5 -6 -8 -8 -7 -7 -7 -8 -8 -9 -10 -10 -10 -9 -12 -14 -15 -16 -18 -19 -19 -19 -19 -20
-1 -2 -1 -1 -1 -1 -2 -3 -5 -6 -6 -5 -5 -6 -8 -8 -8 -8 -8 -8 -9 -10 -10 -11 -11 -12 -12 -13 -15 -15 -17 -19 -19 -19 -19 -20 -21 -21
-1 -1 -1 -2 -2 -3 -5 -6 -6 -6 -6 -7 -8 -8 -8 -9 -9 -9 -10 -10 -11 -11 -12 -13 -14 -15 -16 -16 -16 -18 -18 -18 -19 -19 -19 -20 -20 -21
-1 -2 -3 -5 -6 -6 -6 -6 -7 -9 -8 -8 -8 -9 -9 -10 -11 -11 -11 -12 -13 -13 -14 -14 -15 -17 -17 -19 -18 -18 -18 -18 -18 -19 -19 -21 -20 -22
-3 -5 -5 -6 -6 -7 -7 -8 -10 -8 -9 -9 -9 -10 -10 -11 -12 -12 -13 -13 -13 -14 -16 -17 -17 -18 -19 -19 -18 -18 -18 -19 -19 -18 -19 -19 -20 -20
-5 -6 -6 -7 -7 -8 -8 -8 -9 -9 -10 -10 -11 -11 -12 -12 -13 -13 -14 -14 -15 -16 -17 -18 -18 -19 -18 -18 -18 -18 -18 -18 -18 -18 -19 -19 -19 -19
-7 -7 -7 -8 -8 -8 -8 -9 -10 -10 -11 -11 -12 -12 -13 -14 -14 -15 -16 -16 -17 -17 -18 -18 -19 -18 -18 -19 -18 -18 -18 -18 -19 -19 -19 -19 -19 -18
-8 -8 -9 -9 -9 -9 -10 -10 -11 -11 -12 -12 -13 -13 -14 -15 -16 -16 -17 -17 -18 -18 -19 -19 -19 -19 -18 -19 -19 -19 -18 -18 -18 -19 -19 -19 -20 -19
-9 -9 -9 -9 -10 -10 -11 -11 -12 -12 -13 -14 -14 -15 -16 -16 -17 -18 -18 -19 -19 -19 -19 -19 -19 -19 -19 -19 -19 -19 -20 -19 -19 -18 -18 -18 -19 -19
-9 -10 -10 -10 -10 -11 -12 -12 -13 -13 -14 -15 -15 -16 -17 -17 -18 -18 -19 -20 -20 -20 -20 -20 -19 -19 -19 -19 -19 -19 -19 -20 -20 -19 -19 -18 -18 -18
-10 -10 -11 -11 -12 -12 -13 -14 -14 -15 -15 -16 -16 -17 -18 -18 -19 -20 -20 -20 -20 -20 -20 -20 -20 -19 -19 -20 -19 -19 -19 -19 -19 -19 -19 -19 -20 -20

GFSNE_700_temp_120.txt.gz
Temp
1 1 1 1 1 1 0 -0 -0 -1 -1 -1 -2 -2 -2 -2 -1 -1 -2 -0 -1 -1 -1 -1 -1 -1 -1 -2 -1 -1 -1 -1 -1 -1 -1 -1 -1 -1
1 1 1 1 0 0 0 -0 -0 -1 -2 -2 -1 -1 -2 -1 -2 -1 -1 -1 -1 -1 -1 -1 -1 -1 -1 -1 -1 -1 -1 -1 -1 -2 -1 -1 -2 -2
1 1 1 1 0 -0 -1 -2 -2 -2 -2 -3 -2 -2 -2 -1 -1 -1 -1 -1 -1 -1 -1 -1 -1 -1 -1 -1 -2 -1 -2 -1 -1 -1 -1 -2 -2 -2
1 1 1 1 1 1 -1 -2 -2 -2 -2 -2 -2 -1 -2 -2 -2 -1 -1 -1 -1 -1 -1 -1 -1 -1 -1 -2 -2 -1 -2 -1 -2 -2 -2 -2 -2 -2
1 0 0 -0 -1 0 -0 -1 -2 -1 -1 -1 -1 -1 -2 -1 -1 -1 -1 -2 -1 -1 -1 -1 -1 -1 -2 -2 -2 -2 -2 -2 -1 -2 -2 -2 -2 -2
1 1 0 -0 -0 -0 -0 -1 -1 -1 -1 -1 -1 -1 -1 -1 -2 -1 -1 -1 -2 -1 -1 -2 -2 -2 -2 -3 -3 -3 -3 -3 -3 -3 -3 -3 -3 -3
1 0 0 0 -0 0 -0 -0 -1 -1 -1 -1 -1 -2 -2 -1 -1 -2 -1 -1 -1 -1 -2 -2 -2 -2 -3 -3 -3 -4 -5 -5 -5 -4 -4 -4 -4 -4
1 0 1 -0 -0 -0 -0 -1 -1 -1 -1 -1 -1 -1 -1 -1 -1 -2 -1 -1 -2 -2 -2 -2 -2 -3 -5 -6 -6 -7 -6 -5 -5 -5 -4 -4 -5 -5
-0 -0 0 -0 -0 -0 -1 -1 -1 -1 -1 -1 -1 -2 -1 -1 -1 -1 -2 -2 -2 -2 -3 -4 -5 -5 -6 -8 -8 -6 -6 -6 -6 -6 -6 -7 -7 -8
-0 -0 -0 -0 -1 -1 -1 -1 -1 -1 -1 -1 -1 -1 -2 -2 -2 -2 -2 -2 -3 -4 -5 -5 -5 -6 -7 -7 -7 -7 -8 -8 -8 -8 -10 -10 -11 -11
-0 -0 -1 -1 -1 -1 -1 -1 -1 -1 -1 -2 -1 -2 -1 -2 -2 -2 -4 -5 -5 -5 -6 -7 -6 -6 -7 -8 -8 -8 -9 -10 -10 -11 -12 -13 -15 -16
-0 -0 -0 -0 -1 -1 -1 -1 -1 -1 -1 -1 -1 -2 -2 -3 -5 -5 -5 -6 -7 -8 -7 -7 -7 -7 -7 -9 -10 -10 -11 -12 -13 -14 -16 -17 -17 -18
-1 -1 -1 -1 -1 -1 -2 -1 -2 -2 -1 -2 -2 -3 -5 -5 -6 -6 -7 -7 -7 -8 -8 -8 -8 -9 -9 -9 -11 -12 -13 -15 -16 -17 -17 -17 -19 -19
-0 -0 -1 -2 -2 -1 -1 -2 -2 -2 -2 -4 -5 -6 -6 -6 -7 -7 -8 -8 -8 -9 -9 -9 -10 -10 -11 -13 -13 -15 -16 -17 -17 -17 -17 -18 -19 -19
-1 -1 -1 -1 -1 -1 -1 -2 -4 -5 -5 -6 -6 -7 -8 -7 -7 -8 -8 -9 -9 -10 -11 -11 -12 -13 -14 -14 -16 -17 -17 -17 -16 -17 -18 -18 -18 -18
-1 -1 -1 -2 -3 -3 -4 -4 -5 -6 -6 -7 -8 -8 -8 -8 -9 -9 -10 -10 -11 -11 -12 -12 -13 -14 -16 -17 -17 -17 -17 -17 -17 -17 -17 -18 -18 -18
-1 -2 -3 -3 -4 -5 -6 -6 -7 -6 -7 -8 -8 -9 -9 -10 -10 -11 -11 -12 -12 -13 -13 -13 -15 -16 -17 -17 -17 -17 -17 -17 -17 -17 -17 -17 -17 -18
-3 -3 -4 -6 -6 -6 -7 -7 -7 -8 -8 -9 -9 -10 -10 -11 -11 -12 -12 -12 -13 -14 -15 -16 -17 -18 -18 -17 -17 -18 -18 -18 -17 -17 -18 -18 -18 -18
-5 -6 -7 -7 -7 -8 -8 -8 -9 -9 -10 -10 -10 -11 -11 -12 -13 -13 -13 -14 -14 -15 -16 -17 -18 -18 -18 -18 -17 -18 -18 -18 -18 -18 -18 -18 -18 -19
-7 -7 -7 -8 -8 -8 -9 -9 -10 -10 -10 -11 -11 -12 -12 -13 -14 -14 -15 -15 -16 -16 -17 -17 -18 -18 -18 -18 -18 -18 -18 -17 -18 -18 -18 -18 -19 -18
-8 -8 -9 -8 -9 -9 -10 -10 -11 -11 -11 -12 -12 -13 -14 -14 -15 -15 -16 -17 -17 -17 -18 -18 -19 -19 -19 -19 -19 -19 -18 -18 -18 -18 -18 -18 -18 -18
-9 -9 -9 -9 -10 -10 -11 -11 -12 -12 -13 -13 -14 -14 -15 -15 -16 -17 -17 -17 -18 -18 -19 -19 -19 -19 -19 -19 -19 -19 -19 -19 -19 -19 -19 -20 -19 -19
-10 -10 -10 -10 -11 -11 -12 -12 -13 -13 -14 -14 -15 -15 -16 -17 -17 -17 -18 -18 -19 -19 -19 -20 -20 -19 -19 -19 -19 -19 -19 -19 -19 -19 -20 -20 -20 -20

GFSNE_700_temp_126.txt.gz
Temp
1 1 1 -0 -1 -0 0 1 1 1 0 -0 1 1 0 0 -0 -1 -1 -2 -2 -2 -2 -2 -2 -2 -2 -2 -2 -2 -2 -2 -2 -2 -1 -1 -2 -2
1 1 0 1 -1 -1 -0 -0 0 1 0 0 1 0 -0 -0 -1 -2 -2 -2 -2 -2 -2 -2 -2 -2 -2 -2 -2 -2 -2 -2 -1 -1 -2 -2 -2 -1
1 1 1 0 1 -0 -1 -1 0 0 1 0 -0 -0 -1 -1 -1 -2 -2 -2 -2 -2 -2 -2 -2 -2 -2 -1 -1 -2 -2 -1 -2 -2 -2 -2 -3 -3
0 1 1 -0 -0 -0 -1 -1 -0 0 0 -0 -0 -0 -0 -1 -1 -2 -2 -2 -2 -2 -1 -2 -2 -2 -1 -2 -2 -2 -2 -2 -2 -3 -3 -4 -4 -3
0 0 1 0 -0 -1 -1 -1 -2 -2 -1 -1 -1 -1 -1 -1 -2 -2 -2 -3 -2 -2 -2 -2 -2 -1 -2 -2 -2 -2 -2 -2 -3 -4 -3 -3 -3 -3
1 0 0 0 -0 -0 -1 -1 -2 -2 -1 -1 -1 -1 -2 -2 -2 -2 -2 -2 -2 -2 -2 -2 -2 -2 -2 -2 -2 -2 -2 -3 -3 -3 -4 -4 -4 -3
1 1 0 -0 -0 -0 -2 -1 -2 -2 -1 -0 -1 -2 -2 -2 -2 -1 -1 -2 -2 -2 -2 -2 -2 -2 -3 -2 -3 -2 -3 -3 -4 -3 -3 -4 -4 -5
1 1 1 -0 -0 0 -0 -1 -1 -2 -1 -2 -1 -1 -1 -1 -1 -1 -2 -2 -2 -2 -2 -2 -2 -2 -2 -3 -3 -3 -4 -4 -4 -4 -5 -5 -6 -7
1 1 0 -0 -0 -0 0 -1 -2 -1 -1 -1 -1 -1 -1 -1 -1 -1 -2 -2 -2 -2 -2 -2 -2 -3 -4 -4 -4 -4 -4 -5 -5 -6 -6 -7 -8 -9
0 1 0 -0 -0 0 -0 -1 -1 -0 -1 -1 -1 -1 -1 -1 -1 -1 -1 -2 -2 -2 -2 -3 -3 -4 -4 -5 -5 -5 -6 -6 -7 -7 -8 -9 -11 -12
-0 -0 -0 -0 0 0 0 -0 -1 -1 -1 -1 -1 -1 -1 -1 -2 -2 -2 -2 -2 -3 -3 -4 -4 -6 -6 -6 -6 -7 -7 -8 -9 -9 -10 -12 -13 -14
0 0 -0 -1 -1 -1 -1 -1 -1 -1 -1 -1 -1 -1 -1 -1 -2 -2 -2 -2 -3 -4 -4 -5 -6 -6 -6 -7 -7 -8 -9 -10 -11 -12 -13 -14 -15 -16
1 1 0 -0 -0 -1 -1 -1 -1 -1 -1 -1 -1 -2 -2 -1 -2 -2 -3 -3 -4 -5 -5 -6 -6 -7 -7 -8 -8 -9 -10 -11 -13 -14 -15 -16 -16 -16
1 1 -0 -0 -1 -1 -1 -1 -1 -2 -1 -1 -2 -2 -2 -2 -2 -3 -4 -5 -5 -6 -6 -6 -7 -7 -8 -9 -10 -11 -12 -13 -15 -15 -16 -16 -17 -17
-1 -1 -1 -2 -2 -1 -1 -1 -1 -1 -1 -2 -2 -2 -3 -4 -4 -5 -6 -6 -6 -6 -7 -8 -8 -9 -9 -10 -11 -12 -14 -15 -16 -16 -16 -17 -17 -17
-1 -1 -2 -2 -1 -1 -1 -1 -2 -2 -2 -2 -3 -4 -5 -6 -6 -6 -6 -6 -7 -7 -8 -9 -9 -10 -11 -12 -13 -14 -15 -16 -17 -17 -17 -17 -18 -17
-1 -1 -2 -2 -3 -2 -2 -2 -2 -3 -3 -4 -5 -6 -7 -7 -7 -7 -7 -8 -8 -9 -9 -10 -10 -11 -12 -13 -14 -15 -16 -17 -17 -17 -17 -17 -18 -17
-1 -1 -1 -2 -2 -2 -3 -3 -4 -4 -5 -6 -6 -8 -8 -7 -7 -8 -8 -9 -9 -10 -10 -11 -12 -13 -13 -14 -15 -17 -17 -18 -18 -18 -18 -18 -18 -18
-2 -2 -3 -4 -4 -4 -5 -5 -5 -6 -7 -7 -7 -7 -8 -8 -8 -9 -9 -10 -10 -11 -12 -12 -13 -14 -14 -15 -16 -17 -18 -18 -18 -18 -18 -18 -18 -18
-4 -4 -4 -4 -5 -5 -6 -6 -7 -8 -8 -8 -8 -8 -9 -9 -10 -10 -11 -11 -12 -12 -13 -13 -14 -14 -15 -16 -18 -18 -19 -19 -18 -18 -18 -18 -18 -18
-4 -4 -6 -6 -7 -7 -7 -8 -8 -8 -8 -9 -9 -9 -10 -10 -11 -11 -12 -12 -13 -13 -14 -14 -15 -16 -17 -17 -18 -19 -19 -19 -19 -18 -18 -18 -18 -18
-6 -7 -7 -7 -8 -9 -9 -8 -9 -9 -9 -10 -10 -10 -11 -11 -11 -12 -13 -13 -14 -14 -15 -16 -17 -17 -17 -18 -18 -19 -19 -19 -19 -19 -19 -19 -19 -19
-8 -8 -9 -10 -10 -9 -9 -10 -10 -10 -10 -11 -11 -11 -11 -12 -12 -13 -14 -14 -15 -16 -16 -17 -17 -17 -18 -18 -19 -20 -20 -19 -19 -19 -20 -19 -20 -20

GFSNE_700_temp_132.txt.gz
Temp
3 3 2 2 2 1 2 2 1 -0 1 1 1 2 2 2 1 1 0 0 -0 -0 -1 -2 -2 -2 -2 -2 -2 -2 -2 -2 -2 -2 -2 -2 -3 -2
3 2 2 1 2 1 2 1 1 -0 -1 0 2 2 2 2 2 1 1 0 -0 -1 -2 -1 -2 -2 -2 -3 -2 -2 -2 -2 -2 -2 -2 -2 -3 -2
3 2 2 1 2 2 1 2 2 -0 -1 -0 0 1 2 2 1 1 1 -0 -1 -2 -2 -2 -2 -2 -2 -2 -2 -2 -2 -2 -2 -2 -2 -2 -1 -1
3 2 2 2 2 1 1 1 1 0 -0 -0 0 1 1 1 0 -0 -1 -2 -1 -2 -2 -1 -2 -2 -2 -2 -2 -2 -2 -2 -2 -3 -4 -3 -2 -3
3 2 2 1 1 1 0 1 1 0 -1 -0 0 1 0 0 -1 -1 -1 -1 -1 -2 -2 -2 -2 -2 -2 -2 -2 -2 -2 -2 -3 -3 -3 -3 -3 -3
2 2 2 2 1 0 1 1 1 -0 -0 -0 -0 -1 -1 -1 -2 -1 -1 -2 -2 -2 -1 -3 -2 -2 -2 -2 -2 -2 -2 -2 -2 -4 -3 -3 -3 -4
2 1 2 2 2 1 1 0 0 0 0 1 -1 -1 -0 -1 -1 -2 -1 -2 -3 -3 -3 -2 -2 -2 -2 -2 -2 -2 -3 -3 -3 -3 -3 -3 -4 -4
1 1 1 1 1 1 1 0 1 1 1 1 0 -1 -1 -1 -1 -1 -2 -2 -2 -3 -2 -2 -2 -2 -2 -2 -2 -2 -3 -3 -3 -4 -4 -4 -4 -5
2 1 1 0 1 1 0 1 0 -0 0 0 -0 -1 -1 -1 -1 -1 -2 -2 -2 -3 -3 -2 -2 -2 -2 -3 -3 -3 -3 -4 -4 -4 -5 -5 -6 -7
1 0 1 1 1 1 0 1 1 -0 -0 -0 -1 -1 -1 -2 -1 -2 -2 -2 -2 -3 -2 -2 -3 -3 -2 -2 -3 -3 -4 -4 -5 -5 -6 -7 -7 -9
2 1 0 1 0 0 0 -0 0 -0 -0 -0 -1 -1 -1 -1 -2 -2 -2 -3 -3 -2 -2 -2 -2 -2 -3 -3 -3 -4 -5 -5 -6 -6 -7 -8 -9 -10
2 1 1 0 1 -0 0 -0 0 0 0 -1 -1 -1 -1 -1 -2 -2 -2 -2 -2 -2 -2 -2 -3 -3 -3 -4 -5 -5 -5 -6 -7 -8 -9 -10 -11 -12
2 2 1 0 -0 -0 0 0 0 0 0 -0 -0 -1 -1 -1 -2 -2 -2 -2 -2 -2 -3 -3 -3 -4 -4 -5 -5 -5 -6 -7 -8 -9 -10 -11 -12 -14
2 1 1 0 -0 -0 -0 -1 -0 -0 -1 -1 -1 -1 -1 -2 -2 -2 -2 -2 -2 -3 -3 -4 -4 -5 -6 -6 -6 -7 -7 -8 -9 -10 -11 -12 -14 -15
2 1 1 1 1 -1 -0 -1 -1 -1 -1 -2 -2 -2 -2 -2 -2 -2 -2 -3 -3 -4 -4 -5 -5 -7 -6 -6 -7 -8 -8 -9 -10 -11 -12 -14 -15 -16
2 1 1 0 -0 -0 -1 -1 -2 -2 -2 -2 -2 -2 -2 -2 -2 -2 -3 -3 -4 -5 -5 -6 -7 -6 -7 -7 -8 -9 -9 -10 -11 -13 -14 -14 -15 -16
0 0 0 -0 -1 -1 -1 -2 -2 -2 -2 -2 -2 -2 -2 -2 -2 -3 -3 -4 -5 -6 -7 -7 -7 -7 -8 -8 -9 -10 -10 -11 -12 -13 -14 -15 -16 -17
-2 -1 -1 -1 -1 -1 -1 -2 -2 -2 -2 -2 -2 -2 -3 -4 -3 -4 -5 -5 -7 -7 -7 -7 -8 -8 -9 -9 -10 -11 -11 -12 -12 -13 -14 -16 -17 -18
-1 -1 -2 -1 -1 -2 -2 -2 -2 -2 -2 -2 -3 -3 -4 -5 -5 -5 -7 -8 -8 -8 -8 -8 -9 -10 -10 -10 -11 -11 -12 -12 -13 -15 -16 -17 -18 -18
-2 -1 -1 -1 -2 -1 -2 -2 -2 -2 -3 -4 -5 -5 -6 -6 -8 -9 -8 -9 -9 -9 -9 -10 -10 -10 -11 -11 -12 -12 -13 -14 -15 -16 -17 -19 -19 -19
-2 -2 -2 -2 -2 -2 -3 -4 -5 -5 -5 -6 -6 -6 -9 -10 -9 -9 -9 -9 -10 -10 -10 -11 -11 -11 -12 -12 -13 -13 -14 -15 -15 -17 -18 -19 -19 -19
-4 -4 -4 -4 -5 -5 -5 -6 -6 -6 -7 -7 -9 -10 -9 -9 -9 -10 -10 -10 -11 -11 -11 -12 -12 -12 -13 -13 -14 -15 -15 -16 -17 -18 -18 -19 -19 -19
-6 -6 -6 -6 -6 -7 -7 -8 -8 -8 -11 -12 -12 -12 -11 -10 -10 -10 -11 -11 -12 -12 -12 -12 -13 -13 -14 -14 -15 -16 -16 -17 -18 -19 -19 -19 -20 -20